Regional Weather Roundup
Issued by NWS

Home | Current Version | Previous Version | Text Only | Print | Product List | Glossary On
Versions: 1 2 3 4 5 6 7 8 9 10 11 12 13 14 15 16 17 18 19 20 21 22 23 24 25 26 27 28 29 30 31 32 33 34 35 36 37 38 39 40 41 42 43 44 45 46 47 48 49 50
000
ASUS43 KLSX 272107
RWRMO

WEATHER SUMMARY FOR MISSOURI
NATIONAL WEATHER SERVICE SPRINGFIELD MO
400 PM CDT WED MAY 27 2015

NOTE: "FAIR" INDICATES FEW OR NO CLOUDS BELOW 12,000 FEET WITH NO
       SIGNIFICANT WEATHER AND/OR OBSTRUCTIONS TO VISIBILITY.
       CURRENT SKY AND/OR WEATHER CONDITIONS ARE NOT AVAILABLE FOR
       CHILLICOTHE AND FARMINGTON.

MOZ001>031-035>038-043-044-053-054-272200-
...NORTHERN AND WESTERN MISSOURI...

CITY           SKY/WX    TMP DP  RH WIND       PRES   REMARKS
KANSAS CTY INT PTSUNNY   81  55  40 S6        30.09S
KANSAS C DTWN  SUNNY     84  48  28 CALM      30.07S
LEE`S SUMMIT   MOSUNNY   81  49  32 E7        30.10S
ST JOSEPH      SUNNY     83  50  31 S5        30.07F
KIRKSVILLE     SUNNY     81  57  43 MISG      30.09S

$$
MOZ066>068-077>081-088>096-101>105-272200-
...SOUTHWEST MISSOURI...

CITY           SKY/WX    TMP DP  RH WIND       PRES   REMARKS
SPRINGFIELD    MOSUNNY   83  64  52 NW6       30.08F
JOPLIN         PTSUNNY   83  66  56 CALM      30.08F

$$
MOZ032>034-039>042-045>050-055>058-069>072-272200-
...CENTRAL MISSOURI...

CITY           SKY/WX    TMP DP  RH WIND       PRES   REMARKS
COLUMBIA       MOSUNNY   82  53  36 N6        30.09S
JEFFERSON CITY SUNNY     82  52  35 CALM      30.07F
ROLLA          SUNNY     79  59  50 NW8       30.09S
SEDALIA        SUNNY     82  55  39 N5        30.10F
WHITEMAN AFB   SUNNY     81  54  39 CALM      30.08F
WARRENSBURG    MOSUNNY   81  50  34 CALM      30.10S

$$
MOZ051-052-059>065-272200-
...EAST CENTRAL MISSOURI...

CITY           SKY/WX    TMP DP  RH WIND       PRES   REMARKS
ST LOUIS INTL  MOSUNNY   83  58  42 W8        30.07S
SPIRIT OF STL  MOSUNNY   83  60  45 NW9       30.06S
ST CHARLES     SUNNY     82  57  42 NW12      30.06S

$$
MOZ072>076-082>087-097>100-106>115-272200-
...SOUTH CENTRAL AND SOUTHEAST MISSOURI...

CITY           SKY/WX    TMP DP  RH WIND       PRES   REMARKS
CAPE GIRARDEAU PTSUNNY   77  69  76 S10       30.09F
FARMINGTON     MOSUNNY   79  64  61 S5        30.12F
POPLAR BLUFF   CLOUDY    78  68  71 SW9       30.08F
WEST PLAINS    MOSUNNY   82  64  54 SW7       30.10F

$$



USA.gov is the U.S. government's official web portal to all federal, state and local government web resources and services.